FW6822 Weather Reports


time (UTC)temp
C
wind
direction
speed
KPH
gust
KPH
rain 1hr
cm
rain 24hr
cm
rain mn
cm
humidity
%
barometer
mb
20260508090022 11 72 4.8 11.3 0.00 0.00 0.00 1 1013.1
20260508084513 11 66 6.4 9.7 0.00 0.00 0.00 1 1013.1
20260508083010 10 38 1.6 8.0 0.00 0.00 0.00 1 1013.1
20260508081505 9 41 3.2 9.7 0.00 0.00 0.00 1 1013.0
20260508080101 8 39 3.2 9.7 0.00 0.00 0.00 1 1012.9
20260508074557 8 39 3.2 9.7 0.00 0.00 0.00 1 1012.9
20260508073053 8 49 6.4 12.9 0.00 0.00 0.00 1 1012.9
20260508071549 7 37 1.6 6.4 0.00 0.00 0.00 1 1012.7
20260508070046 7 8 0.0 3.2 0.00 0.00 0.00 1 1012.7
20260508064538 7 22 3.2 8.0 0.00 0.00 0.00 1 1012.6
20260508063033 7 36 1.6 8.0 0.00 0.00 0.00 1 1012.5
20260508061530 7 28 4.8 12.9 0.00 0.00 0.00 1 1012.5
20260508060028 6 49 3.2 6.4 0.00 0.00 0.00 1 1012.3
20260508054523 6 26 3.2 6.4 0.00 0.00 0.00 1 1012.2
20260508053017 6 22 1.6 8.0 0.00 0.00 0.00 1 1012.1
20260508051521 6 49 8.0 14.5 0.00 0.00 0.00 1 1012.0
20260508050010 6 355 3.2 8.0 0.00 0.00 0.00 1 1011.8
20260508044504 6 338 0.0 4.8 0.00 0.00 0.00 1 1011.9
20260508043113 6 17 0.0 4.8 0.00 0.00 0.00 1 1012.0
20260508041557 6 347 0.0 4.8 0.00 0.00 0.00 1 1012.0
20260508040056 6 19 1.6 4.8 0.00 0.00 0.00 1 1012.0
20260508034553 6 65 3.2 8.0 0.00 0.00 0.00 1 1011.9
20260508033042 6 67 0.0 4.8 0.00 0.00 0.00 1 1011.9
20260508031537 6 67 0.0 4.8 0.00 0.00 0.00 1 1011.9
20260508030042 6 67 0.0 3.2 0.00 0.00 0.00 1 1011.9
20260508024535 6 67 0.0 4.8 0.00 0.00 0.00 1 1011.8
20260508023026 6 87 1.6 6.4 0.00 0.00 0.00 1 1011.8
20260508021520 6 136 0.0 4.8 0.00 0.00 0.00 1 1011.8
20260508020016 6 137 0.0 1.6 0.00 0.00 0.00 1 1011.8
20260508014512 6 137 1.6 4.8 0.00 0.00 0.00 1 1011.7
20260508013007 6 164 0.0 0.0 0.00 0.00 0.00 1 1011.7
20260508011504 6 165 0.0 0.0 0.00 0.00 0.00 1 1011.7
20260508010059 7 164 0.0 0.0 0.00 0.00 0.00 1 1011.8
20260508004557 7 164 0.0 0.0 0.00 0.00 0.00 1 1011.9
20260508003050 7 164 0.0 0.0 0.00 0.00 0.00 1 1012.0
20260508001546 7 164 1.6 3.2 0.00 0.00 0.00 1 1012.1
20260508000041 7 164 0.0 3.2 0.00 0.00 0.00 1 1012.1
20260507234538 7 164 0.0 1.6 0.00 0.00 0.00 1 1012.1
20260507233034 7 164 0.0 0.0 0.00 0.00 0.00 1 1012.1
20260507231538 8 164 0.0 0.0 0.00 0.00 0.00 1 1012.1
20260507230024 8 164 0.0 1.6 0.00 0.00 0.00 1 1012.1
20260507224522 8 164 0.0 3.2 0.00 0.00 0.00 1 1011.9
20260507223016 8 186 0.0 1.6 0.00 0.00 0.00 1 1011.9
20260507221515 8 186 0.0 3.2 0.00 0.00 0.00 2 1012.0
20260507220007 9 186 1.6 4.8 0.00 0.00 0.00 6 1011.8
20260507214503 9 176 1.6 6.4 0.00 0.00 0.00 15 1011.8
20260507213103 9 174 4.8 8.0 0.00 0.00 0.00 19 1011.7
20260507211554 10 186 4.8 9.7 0.00 0.00 0.00 27 1011.7
20260507210052 10 159 4.8 8.0 0.00 0.00 0.00 30 1011.6
20260507204546 10 162 4.8 6.4 0.00 0.00 0.00 30 1011.5
20260507203048 10 176 3.2 8.0 0.00 0.00 0.00 36 1011.4
20260507201539 11 164 4.8 9.7 0.00 0.00 0.00 43 1011.1
20260507200044 11 171 4.8 16.1 0.00 0.00 0.00 47 1011.0
20260507194529 11 218 4.8 16.1 0.00 0.00 0.00 49 1011.0
20260507193024 11 158 9.7 16.1 0.00 0.00 0.00 51 1010.9
20260507191520 11 171 6.4 17.7 0.00 0.00 0.00 54 1010.8
20260507190016 11 208 6.4 17.7 0.00 0.00 0.00 56 1010.8
20260507184511 11 291 9.7 20.9 0.00 0.00 0.00 58 1010.7
20260507183022 12 208 14.5 25.7 0.00 0.00 0.00 58 1010.7
20260507181502 12 181 11.3 22.5 0.00 0.00 0.00 58 1010.6
20260507180057 12 198 9.7 24.1 0.00 0.00 0.00 58 1010.7
20260507174605 12 223 9.7 22.5 0.00 0.00 0.00 60 1010.6
20260507173057 12 195 12.9 29.0 0.00 0.00 0.00 61 1010.6
20260507171604 12 176 16.1 25.7 0.00 0.00 0.00 59 1010.6
20260507170040 12 179 12.9 29.0 0.00 0.00 0.00 59 1010.6
20260507164550 12 193 16.1 27.4 0.00 0.00 0.00 60 1010.5
20260507163031 12 184 12.9 27.4 0.00 0.00 0.00 61 1010.5
20260507161539 12 186 12.9 30.6 0.00 0.00 0.00 61 1010.6
20260507160032 13 228 14.5 29.0 0.00 0.00 0.00 61 1010.5
20260507154519 12 226 14.5 29.0 0.00 0.00 0.00 60 1010.5
20260507153015 13 186 19.3 32.2 0.00 0.00 0.00 60 1010.4
20260507151517 12 163 20.9 32.2 0.00 0.00 0.00 60 1010.3
20260507150006 12 191 22.5 33.8 0.00 0.00 0.00 60 1010.3
20260507144501 13 241 24.1 37.0 0.00 0.00 0.00 61 1010.4
20260507143104 13 151 22.5 33.8 0.00 0.00 0.00 60 1010.4
20260507141556 13 149 22.5 40.2 0.00 0.00 0.00 60 1010.4
20260507140048 13 176 20.9 33.8 0.00 0.00 0.00 60 1010.4
20260507134552 13 145 19.3 35.4 0.00 0.00 0.00 60 1010.5
20260507133039 13 129 17.7 30.6 0.00 0.00 0.00 60 1010.4
20260507131539 13 163 17.7 30.6 0.00 0.00 0.00 61 1010.5
20260507130033 12 132 19.3 29.0 0.00 0.00 0.00 61 1010.6
20260507124526 12 180 9.7 33.8 0.00 0.00 0.00 61 1010.6
20260507123022 13 198 14.5 30.6 0.00 0.00 0.00 61 1010.7
20260507121518 12 177 17.7 27.4 0.00 0.00 0.00 61 1010.8
20260507120014 12 165 19.3 27.4 0.00 0.00 0.00 60 1010.8
20260507114520 13 176 14.5 24.1 0.00 0.00 0.00 60 1010.8
20260507113006 12 132 16.1 29.0 0.00 0.00 0.00 60 1010.8
20260507111501 12 149 16.1 30.6 0.00 0.00 0.00 59 1010.9
20260507110110 12 146 14.5 25.7 0.00 0.00 0.00 55 1010.9
20260507104552 12 189 16.1 24.1 0.00 0.00 0.00 55 1010.9
20260507103054 12 145 12.9 24.1 0.00 0.00 0.00 36 1010.9
20260507101548 11 242 8.0 12.9 0.00 0.00 0.00 10 1010.9
20260507100040 11 173 9.7 17.7 0.00 0.00 0.00 38 1011.0
20260507094536 12 141 14.5 24.1 0.00 0.00 0.00 23 1010.9
20260507093030 11 168 9.7 16.1 0.00 0.00 0.00 22 1010.8
20260507091526 12 176 4.8 16.1 0.00 0.00 0.00 29 1010.8